TimeAST,TemperatureF,Dew PointF,Humidity,Sea Level PressureIn,VisibilityMPH,Wind Direction,Wind SpeedMPH,Gust SpeedMPH,PrecipitationIn,Events,Conditions,WindDirDegrees,DateUTC
12:00 AM,84.2,77.0,79,29.86,6.2,SSW,12.7,-,N/A,,Partly Cloudy,210,2012-10-29 04:00:00
1:00 AM,84.2,77.0,79,29.83,6.2,WSW,12.7,-,N/A,,Partly Cloudy,240,2012-10-29 05:00:00
2:00 AM,83,77,79,29.85,22,SW,11.5,,,,Scattered Clouds,230,2012-10-29 06:00:00
2:00 AM,84.2,77.0,79,29.83,6.2,SW,11.5,-,N/A,,Partly Cloudy,230,2012-10-29 06:00:00
3:00 AM,84.2,77.0,79,29.83,6.2,SW,4.6,-,N/A,,Scattered Clouds,230,2012-10-29 07:00:00
4:00 AM,84.2,77.0,79,29.83,6.2,SW,11.5,-,N/A,,Scattered Clouds,230,2012-10-29 08:00:00
5:00 AM,83,77,76,29.85,31,SW,12.7,,,,Scattered Clouds,230,2012-10-29 09:00:00
5:00 AM,82.4,77.0,84,29.83,6.2,SW,12.7,-,N/A,,Partly Cloudy,230,2012-10-29 09:00:00
6:00 AM,82.4,77.0,84,29.86,6.2,WSW,9.2,-,N/A,,Partly Cloudy,240,2012-10-29 10:00:00
7:00 AM,84.2,77.0,79,29.86,6.2,WSW,11.5,-,N/A,,Partly Cloudy,240,2012-10-29 11:00:00
8:00 AM,85,76,69,29.90,31,WSW,9.2,,,,,240,2012-10-29 12:00:00
8:00 AM,84.2,77.0,79,29.89,6.2,SW,9.2,-,N/A,,Partly Cloudy,230,2012-10-29 12:00:00
9:00 AM,86.0,78.8,79,29.92,6.2,SW,11.5,-,N/A,,Scattered Clouds,230,2012-10-29 13:00:00
10:00 AM,86.0,77.0,74,29.92,6.2,SW,9.2,-,N/A,,Scattered Clouds,230,2012-10-29 14:00:00
11:00 AM,86,78,70,29.92,25,WSW,11.5,,,,Partly Cloudy,240,2012-10-29 15:00:00
11:00 AM,86.0,77.0,74,29.92,6.2,SW,11.5,-,N/A,,Scattered Clouds,230,2012-10-29 15:00:00
12:00 PM,87.8,78.8,75,29.89,6.2,SW,9.2,-,N/A,,Scattered Clouds,230,2012-10-29 16:00:00
1:00 PM,86.0,77.0,74,29.89,6.2,SW,6.9,-,N/A,,Partly Cloudy,220,2012-10-29 17:00:00
2:00 PM,87,78,69,29.88,31,SW,9.2,,,,Partly Cloudy,230,2012-10-29 18:00:00
2:00 PM,87.8,78.8,75,29.86,6.2,SW,9.2,-,N/A,,Scattered Clouds,230,2012-10-29 18:00:00
3:00 PM,87.8,77.0,70,29.86,6.2,SW,5.8,-,N/A,,Partly Cloudy,230,2012-10-29 19:00:00
4:00 PM,86.0,78.8,79,29.86,6.2,Variable,3.5,-,N/A,,Mostly Cloudy,0,2012-10-29 20:00:00
5:00 PM,85,78,73,29.87,31,SW,6.9,,,,Partly Cloudy,220,2012-10-29 21:00:00
5:00 PM,86.0,77.0,74,29.86,6.2,SW,6.9,-,N/A,,Scattered Clouds,220,2012-10-29 21:00:00
6:00 PM,84.2,77.0,79,29.86,6.2,Variable,3.5,-,N/A,,Scattered Clouds,0,2012-10-29 22:00:00
7:00 PM,84.2,77.0,79,29.89,6.2,SSW,4.6,-,N/A,,Partly Cloudy,210,2012-10-29 23:00:00
8:00 PM,84,77,74,29.91,25,South,5.8,,,,Scattered Clouds,180,2012-10-30 00:00:00
8:00 PM,84.2,77.0,79,29.89,6.2,South,5.8,-,N/A,,Partly Cloudy,180,2012-10-30 00:00:00
9:00 PM,84.2,77.0,79,29.92,6.2,Variable,3.5,-,N/A,,Partly Cloudy,0,2012-10-30 01:00:00
10:00 PM,84.2,77.0,79,29.92,6.2,Variable,3.5,-,N/A,,Partly Cloudy,0,2012-10-30 02:00:00
11:00 PM,83,77,77,29.94,19,SSE,2.3,,,,Partly Cloudy,150,2012-10-30 03:00:00
11:00 PM,82.4,77.0,84,29.92,6.2,Variable,2.3,-,N/A,,Scattered Clouds,0,2012-10-30 03:00:00